Regional Weather Roundup
Issued by NWS

Home | Current Version | Previous Version | Text Only | Print | Product List | Glossary Off
Versions: 1 2 3 4 5 6 7 8 9 10 11 12 13 14 15 16 17 18 19 20 21 22 23 24 25 26 27 28 29 30 31 32 33 34 35 36 37 38 39 40 41 42 43 44 45 46 47 48 49 50

000
ASUS43 KIND 251859
RWRIN

WEATHER ROUNDUP FOR INDIANA
NATIONAL WEATHER SERVICE INDIANAPOLIS IN
200 PM EST SAT FEB 25 2017

NOTE: "FAIR" INDICATES FEW OR NO CLOUDS BELOW 12,000 FEET WITH NO
SIGNIFICANT WEATHER AND/OR OBSTRUCTIONS TO VISIBILITY.

* - STATION DOES NOT REPORT WEATHER SUCH AS PRECIPITATION OR FOG.

+ - STATION NOT QUALITY CONTROLLED BY THE NATIONAL WEATHER SERVICE.
    USE DATA WITH CAUTION...ESPECIALLY DEWPOINT AND RELATIVE
    HUMIDITY OBSERVATIONS.

INZ001>003-010>013-019-020-252000-
NORTHWEST INDIANA

CITY           SKY/WX    TMP DP  RH WIND       PRES   REMARKS
GARY /AIRPORT/ CLOUDY    28  14  54 W18       29.88R WCI  16
KNOX *+        CLOUDY    27  -4  26 W20G25    29.87R WCI  13

$$

LMZ046-743>745-252000-
SOUTHERN LAKE MICHIGAN

STATION/POSITION TIME  TEMP    WIND        PRES    WAVE
                       AIR SEA DIR/SP/G            HT
                 (UTC) (F)     (DEG/KT/KT) (MB)    (FT)
BURNS HARBOR     1840   26     260/ 19/ 23 1011.5S
MICHIGAN CITY    1830   24     250/ 23/ 26   N/A

$$

INZ004-005-014>016-021>024-252000-
NORTH CENTRAL INDIANA

CITY           SKY/WX    TMP DP  RH WIND       PRES   REMARKS
GOSHEN         CLOUDY    25  16  68 W22       29.82R WCI  10
PERU/GRISSOM   FLURRIES  27  18  69 W23G31    29.86R WCI  12
SOUTH BEND     LGT SNOW  23  17  78 W17G28    29.84R WCI   9

$$

INZ006>009-017-018-025>027-252000-
NORTHEAST INDIANA

CITY           SKY/WX    TMP DP  RH WIND       PRES   REMARKS
ANGOLA *+      CLOUDY    25  18  74 W17       29.77R WCI  11
FORT WAYNE     FLURRIES  28  18  66 W26G32    29.82R WCI  13
KENDALLVILLE + FLURRIES  26  17  70 W15G26    29.79R WCI  13

$$

INZ028-029-035-036-043>045-051>053-252000-
WEST CENTRAL INDIANA

CITY           SKY/WX    TMP DP  RH WIND       PRES   REMARKS
LAFAYETTE      CLOUDY    26  19  74 W18G25    29.92S WCI  13
TERRE HAUTE    PTSUNNY   33  17  51 W17G28    29.98R WCI  22

$$

INZ030>032-037>040-046>048-054>057-064-065-252000-
CENTRAL INDIANA

CITY           SKY/WX    TMP DP  RH WIND       PRES   REMARKS
COLUMBUS       CLOUDY    32  18  55 W18G29    29.97R WCI  20
GREENWOOD *+   CLOUDY    31  19  62 W17G23    29.94R WCI  19
INDIANAPOLIS   LGT SNOW  29  19  66 W18       29.93R WCI  16
-EAGLE CREEK   CLOUDY    29  18  63 W16G26    29.92R WCI  17
KOKOMO +       FLURRIES  27  18  69 W26       29.89R WCI  12
MT COMFORT *+  CLOUDY    27  18  69 W23G29    29.92R WCI  12
SHELBYVILLE    CLOUDY    31  16  54 W22G28    29.92S WCI  18

$$

INZ033-034-041-042-049-050-058-059-252000-
EAST CENTRAL INDIANA

CITY           SKY/WX    TMP DP  RH WIND       PRES   REMARKS
MUNCIE         LGT SNOW  28  19  69 W24       29.87R WCI  14

$$

INZ060-061-067>069-081>083-085>088-252000-
SOUTHWEST INDIANA

CITY           SKY/WX    TMP DP  RH WIND       PRES   REMARKS
EVANSVILLE     PTSUNNY   39  19  44 W15       30.04S
HUNTINGBURG *+ CLOUDY    37  19  48 W16       30.01S

$$

INZ062-063-066-070>080-084-089>092-252000-
SOUTH CENTRAL AND SOUTHEAST INDIANA

CITY           SKY/WX    TMP DP  RH WIND       PRES   REMARKS
BLOOMINGTON    CLOUDY    30  18  60 W14G25    29.95R WCI  19
MADISON *+     CLOUDY    32  19  59 W16G23    29.97S WCI  21
SEYMOUR +      CLOUDY    36  19  51 W24       29.97R

$$




USA.gov is the U.S. government's official web portal to all federal, state and local government web resources and services.